Wind_Speed
8 6 6 6 8 9 9 9 10 11 12 12 11 11 11 11 10 10 9 9 9 9 8 8 8 7 7 7 6 6 6 7 7 7 6 6 7 7 7 7 7 7 7
7 6 6 7 8 8 9 10 10 11 11 11 11 11 10 10 10 9 9 9 8 8 8 8 8 7 6 6 6 5 5 6 6 7 7 7 7 7 7 7 6 7 7
7 7 7 6 7 8 9 9 9 10 10 10 9 9 9 9 9 9 9 8 8 7 7 7 7 6 6 6 5 5 5 5 6 7 6 6 7 7 7 6 6 7 7
6 5 5 6 6 7 8 8 9 9 9 9 8 8 8 8 8 8 8 8 7 7 7 6 6 6 5 5 5 5 5 6 6 7 6 6 6 7 7 6 7 6 7
5 4 4 5 6 6 7 7 7 8 8 7 8 8 8 8 8 8 8 7 7 7 6 6 6 5 5 5 5 5 5 5 6 7 6 6 6 7 7 7 7 7 6
5 4 4 5 5 5 6 7 7 7 7 8 8 8 8 8 8 7 7 7 7 6 6 6 5 5 4 5 5 5 5 5 6 6 6 6 6 6 6 6 6 6 6
6 4 4 4 5 5 6 7 7 7 7 8 8 8 8 8 8 7 7 6 6 6 5 6 5 4 4 4 4 5 5 4 5 5 5 5 5 5 6 6 5 5 5
6 4 4 4 4 5 6 6 6 6 6 7 8 8 8 8 8 7 6 6 6 5 5 5 5 4 3 4 4 5 5 4 5 5 5 5 4 5 5 5 5 4 4
5 3 3 3 3 4 5 5 5 5 6 6 7 8 8 7 7 6 6 5 5 5 5 5 4 4 4 4 5 5 5 5 5 5 4 4 4 4 4 4 4 4 4
5 3 3 3 3 3 3 4 5 5 5 6 7 8 7 7 6 6 6 6 6 5 4 4 4 5 5 4 5 5 5 4 5 5 4 3 3 3 3 4 4 3 3
5 4 2 1 2 3 3 3 4 5 5 5 7 7 6 6 6 6 7 6 5 5 4 4 4 5 5 5 6 5 5 5 4 4 4 3 3 2 3 3 3 2 2
6 5 3 1 0 1 2 3 4 5 5 5 7 7 6 6 6 6 6 6 5 4 4 4 5 5 5 5 5 5 5 4 4 3 3 3 2 2 2 2 2 2 1
7 5 4 2 1 0 2 2 3 4 4 5 6 6 6 5 5 5 5 5 5 4 4 5 5 6 6 5 5 4 4 4 3 3 2 2 1 1 1 1 1 1 1
8 7 6 4 2 1 2 2 3 4 4 5 6 6 6 5 5 6 6 5 5 4 4 5 6 6 6 5 5 4 4 3 3 2 2 2 1 1 0 1 1 2 2
9 8 7 5 3 1 1 2 3 4 4 5 6 6 6 6 5 6 6 6 5 5 4 4 5 5 5 5 4 4 4 3 2 2 2 2 1 1 1 1 2 2 2
9 8 8 7 6 4 2 1 3 4 4 5 6 6 6 6 5 6 6 6 5 5 4 4 4 5 4 4 3 3 3 3 2 2 2 2 2 2 2 2 3 3 3
10 9 8 8 7 6 5 2 2 3 4 4 5 6 6 6 6 6 6 6 5 4 4 4 4 4 4 4 4 4 4 3 3 3 3 3 3 3 4 4 4 4 4
12 11 10 9 8 7 6 4 1 2 2 3 5 6 6 6 6 7 7 6 6 5 5 4 5 5 4 4 4 5 5 5 5 5 5 5 5 5 5 5 5 5 5
12 12 11 10 10 9 7 6 3 1 2 3 4 5 6 6 7 7 7 7 6 6 6 5 5 5 6 6 6 6 6 7 7 7 7 7 7 7 7 7 6 7 7
12 12 12 11 11 9 8 7 5 3 1 3 4 5 6 7 8 8 8 7 7 7 8 7 7 7 7 7 6 7 8 9 9 9 9 8 9 9 9 8 8 8 9
12 12 13 12 11 10 8 7 7 5 3 3 4 5 6 7 8 8 9 8 8 8 8 8 9 9 8 8 7 8 9 9 9 10 10 10 10 10 10 10 10 10 10
12 12 13 13 12 11 9 8 8 7 5 4 4 5 7 8 8 9 9 9 10 9 9 10 10 10 10 9 9 10 10 10 10 11 11 11 11 11 11 12 12 11 12
12 12 12 12 12 11 10 9 8 7 7 5 4 4 6 8 8 9 9 10 10 10 10 11 11 11 12 11 11 11 11 12 12 11 11 12 12 12 12 12 13 13 13
12 12 12 12 12 11 9 10 9 8 8 6 4 4 5 6 7 8 9 10 11 11 11 12 12 13 13 13 13 12 12 12 13 13 13 13 13 13 13 13 14 14 14
11 12 12 12 12 11 10 10 10 9 9 7 5 5 4 5 6 7 9 10 11 11 12 12 13 14 14 14 14 14 14 14 14 14 14 15 15 14 14 14 15 15 16
11 11 12 13 13 11 10 10 9 10 9 8 7 6 6 6 7 8 9 10 11 12 12 13 14 15 15 16 16 16 16 16 16 16 16 16 16 16 16 17 17 17 17
Wind_Direction
109 110 111 119 125 125 124 125 123 122 121 121 120 116 113 114 113 112 108 109 108 108 106 105 106 111 105 105 103 97 98 101 106 104 110 116 116 116 114 110 107 105 100
102 108 116 121 124 125 124 124 123 122 122 121 119 118 116 115 116 113 112 111 109 109 108 109 109 107 108 106 104 100 97 104 107 108 112 118 119 118 115 113 108 106 101
109 114 116 121 124 126 124 124 125 128 127 123 121 121 122 120 118 118 117 115 113 113 113 114 110 107 108 108 106 105 104 109 107 112 116 121 124 122 118 116 113 109 104
108 111 113 113 127 129 128 129 131 132 131 129 124 122 124 126 127 122 123 120 117 118 119 117 113 112 114 115 112 108 107 107 108 114 119 123 126 120 117 115 110 106 105
105 109 109 113 125 135 136 136 139 138 134 134 129 126 129 133 132 127 129 130 127 126 128 125 117 119 123 121 121 117 113 107 111 112 116 124 127 120 114 111 109 108 107
90 106 115 120 123 134 141 137 140 139 139 135 132 131 130 132 133 132 128 130 130 130 131 129 119 121 127 126 122 124 111 113 116 113 112 119 123 122 118 114 112 109 109
75 89 111 122 129 135 137 139 138 138 139 138 138 135 132 131 132 130 127 125 129 129 129 129 128 129 136 140 131 122 115 116 118 118 117 122 123 128 126 120 117 112 112
70 84 105 122 138 142 145 141 142 143 143 145 145 144 139 136 135 133 126 121 125 128 127 128 132 136 140 145 141 128 119 120 122 123 124 128 130 131 130 126 122 117 117
60 72 97 130 148 153 151 150 156 154 149 149 150 150 146 143 140 138 131 128 129 130 127 132 136 136 136 143 144 136 128 126 126 126 128 131 137 143 141 139 132 124 123
51 64 101 122 145 149 155 166 170 168 156 150 152 154 152 152 148 141 139 137 132 128 129 135 144 143 137 143 143 135 135 133 134 130 133 129 139 149 147 145 141 136 133
41 52 71 122 139 147 146 157 168 171 164 163 164 162 158 156 153 149 149 144 137 134 137 137 147 149 146 147 144 140 141 137 137 135 132 131 139 147 149 151 150 143 142
35 43 52 63 153 160 163 168 169 168 166 166 169 168 166 162 153 155 159 155 148 147 145 138 146 153 152 151 149 151 145 143 140 138 136 140 138 141 153 156 155 160 167
35 41 44 50 44 158 182 184 185 178 175 174 174 175 175 172 161 162 162 163 160 161 155 144 147 153 151 150 150 146 141 141 143 145 141 141 136 140 154 181 206 204 221
44 48 46 39 21 306 204 191 192 187 190 189 187 187 187 181 170 169 171 172 173 168 157 145 147 150 149 149 151 147 150 147 154 157 156 157 157 161 237 257 262 256 247
45 44 40 38 25 12 205 199 196 198 201 199 196 196 194 192 183 182 183 184 183 172 157 153 158 158 154 149 155 160 167 166 171 175 178 189 204 225 263 275 278 287 276
37 37 37 37 33 45 70 173 204 204 202 200 198 197 197 196 195 194 188 187 186 184 178 172 173 170 168 171 177 183 187 194 198 208 218 230 238 249 265 276 279 289 280
35 35 34 33 30 38 44 60 190 197 202 206 204 199 195 195 197 197 195 194 195 197 192 190 186 188 189 200 210 212 213 221 231 245 244 248 255 264 271 276 277 281 283
32 31 31 30 28 29 34 37 56 209 212 212 208 204 204 205 204 204 203 202 205 209 209 208 205 208 214 223 225 227 234 241 244 253 252 254 260 266 270 275 275 275 280
31 28 26 25 23 21 24 26 16 336 227 215 206 209 216 218 218 216 214 213 215 219 221 224 221 222 227 235 241 242 242 247 250 254 255 257 263 267 271 273 273 277 278
29 26 24 23 21 19 22 20 10 353 283 246 230 227 228 226 228 228 225 224 228 228 229 232 235 236 239 244 248 249 250 257 256 255 256 260 265 270 271 273 276 277 279
26 24 22 20 18 17 17 18 14 7 341 292 257 246 244 236 232 233 235 235 236 236 237 240 240 240 246 251 253 255 258 260 258 257 258 261 266 270 273 274 275 275 276
24 24 23 21 18 17 16 14 8 6 0 330 283 256 250 245 242 241 241 242 243 243 243 244 243 245 250 254 258 260 261 262 262 261 263 263 266 271 275 275 274 274 275
21 20 20 18 16 16 15 13 10 7 360 347 316 279 258 250 248 246 244 246 245 246 247 249 247 248 251 257 262 263 261 260 262 264 266 267 269 271 275 276 274 275 277
14 14 14 13 11 11 9 4 7 4 357 349 330 305 279 266 259 253 250 250 248 250 253 253 251 250 252 256 261 263 262 261 262 264 268 270 272 272 273 275 275 275 278
9 7 6 6 7 9 5 1 1 360 355 353 336 317 303 283 275 271 261 257 255 256 257 256 254 254 255 257 259 261 263 262 263 264 266 269 272 273 273 274 275 276 278
2 2 2 2 1 5 2 357 354 354 354 352 344 324 307 299 283 278 271 268 267 266 264 261 259 259 258 258 259 261 262 263 266 267 268 269 272 275 276 275 276 277 278
Height
5898 5897 5897 5897 5898 5898 5899 5899 5899 5900 5900 5901 5902 5902 5903 5903 5904 5904 5905 5905 5906 5906 5906 5907 5907 5907 5908 5908 5908 5908 5908 5908 5908 5907 5907 5908 5908 5908 5909 5909 5909 5909 5909
5899 5898 5898 5898 5898 5899 5899 5900 5900 5901 5901 5902 5902 5903 5903 5904 5904 5905 5905 5906 5906 5907 5907 5907 5908 5908 5908 5908 5908 5908 5908 5908 5908 5908 5908 5909 5909 5909 5910 5910 5910 5910 5910
5900 5899 5899 5899 5899 5900 5900 5901 5901 5902 5902 5902 5903 5903 5904 5904 5905 5905 5906 5906 5907 5907 5908 5908 5908 5909 5909 5909 5909 5909 5909 5909 5909 5909 5909 5909 5910 5910 5910 5911 5911 5911 5911
5900 5900 5900 5900 5900 5901 5901 5901 5902 5902 5902 5903 5903 5904 5904 5905 5905 5906 5906 5907 5907 5908 5908 5909 5909 5909 5909 5910 5910 5910 5910 5909 5909 5910 5910 5910 5910 5911 5911 5912 5912 5912 5912
5901 5901 5901 5901 5901 5901 5902 5902 5902 5903 5903 5903 5904 5904 5905 5905 5906 5906 5907 5907 5908 5908 5908 5909 5909 5910 5910 5910 5910 5910 5910 5910 5910 5910 5911 5911 5911 5912 5912 5913 5913 5913 5914
5902 5902 5902 5902 5902 5902 5902 5903 5903 5903 5903 5904 5904 5905 5905 5906 5906 5907 5907 5907 5908 5908 5909 5909 5909 5910 5910 5910 5911 5911 5911 5911 5911 5912 5912 5912 5912 5913 5913 5914 5914 5914 5915
5903 5903 5903 5902 5903 5903 5903 5903 5903 5903 5904 5904 5905 5905 5906 5906 5906 5907 5907 5908 5908 5909 5909 5909 5910 5910 5910 5911 5911 5911 5911 5912 5912 5912 5913 5913 5913 5914 5914 5915 5915 5915 5916
5905 5904 5904 5903 5904 5904 5904 5904 5904 5904 5904 5904 5905 5905 5906 5906 5907 5907 5908 5908 5909 5909 5909 5909 5910 5910 5910 5911 5911 5911 5912 5912 5913 5913 5913 5914 5914 5914 5915 5915 5916 5916 5916
5905 5905 5904 5904 5904 5904 5904 5904 5904 5904 5904 5904 5905 5905 5906 5906 5907 5908 5908 5908 5909 5909 5909 5910 5910 5910 5911 5911 5911 5912 5912 5913 5913 5914 5914 5914 5915 5915 5916 5916 5916 5917 5917
5906 5905 5905 5904 5904 5904 5904 5904 5904 5904 5905 5905 5905 5906 5906 5907 5907 5908 5908 5909 5909 5909 5910 5910 5910 5910 5911 5911 5912 5912 5913 5913 5914 5914 5914 5915 5915 5916 5916 5916 5917 5917 5917
5907 5906 5905 5905 5904 5904 5904 5904 5904 5904 5904 5905 5905 5906 5906 5907 5907 5908 5908 5909 5910 5910 5910 5910 5910 5911 5911 5912 5912 5913 5913 5914 5914 5914 5915 5915 5916 5916 5916 5917 5917 5917 5917
5907 5907 5906 5905 5905 5904 5904 5904 5904 5904 5904 5905 5906 5906 5907 5907 5907 5908 5908 5909 5910 5910 5910 5910 5911 5911 5912 5912 5913 5913 5914 5914 5915 5915 5915 5916 5916 5916 5916 5917 5917 5917 5917
5908 5907 5906 5905 5904 5904 5904 5904 5904 5904 5904 5905 5905 5906 5907 5907 5907 5908 5909 5909 5910 5910 5910 5911 5911 5911 5912 5913 5913 5914 5914 5914 5915 5915 5915 5916 5916 5916 5916 5917 5917 5917 5917
5909 5907 5906 5905 5905 5904 5904 5904 5904 5904 5904 5905 5905 5906 5907 5907 5908 5908 5909 5909 5910 5910 5910 5911 5911 5912 5912 5913 5914 5914 5915 5915 5915 5916 5916 5916 5916 5917 5916 5916 5916 5916 5916
5910 5909 5907 5906 5905 5904 5903 5903 5903 5904 5904 5904 5905 5906 5906 5907 5908 5908 5909 5909 5910 5910 5911 5911 5912 5912 5913 5913 5914 5915 5915 5915 5916 5916 5916 5916 5916 5916 5916 5916 5916 5916 5916
5911 5910 5908 5907 5905 5904 5903 5903 5903 5903 5904 5904 5905 5905 5906 5907 5908 5908 5909 5909 5910 5910 5911 5911 5912 5912 5913 5913 5914 5915 5915 5915 5916 5916 5916 5916 5916 5916 5916 5916 5916 5915 5915
5913 5911 5910 5908 5906 5905 5904 5903 5903 5903 5903 5904 5904 5905 5906 5906 5907 5907 5908 5909 5910 5910 5911 5911 5912 5912 5913 5914 5914 5914 5915 5915 5915 5915 5915 5915 5915 5915 5915 5915 5915 5915 5914
5914 5912 5911 5909 5907 5905 5904 5904 5903 5903 5903 5903 5904 5904 5905 5906 5906 5907 5908 5908 5909 5910 5910 5911 5911 5912 5913 5913 5913 5914 5914 5914 5914 5914 5914 5914 5914 5914 5914 5914 5914 5913 5913
5916 5914 5912 5910 5908 5906 5905 5904 5903 5903 5903 5903 5903 5904 5904 5905 5905 5906 5907 5907 5908 5909 5909 5910 5911 5911 5912 5912 5912 5913 5913 5913 5913 5913 5913 5913 5913 5913 5913 5913 5912 5912 5912
5917 5915 5913 5911 5909 5907 5905 5904 5904 5903 5903 5902 5902 5903 5903 5903 5904 5905 5906 5906 5907 5908 5908 5909 5910 5910 5910 5911 5911 5911 5911 5912 5912 5912 5912 5912 5912 5911 5911 5911 5910 5910 5910
5918 5916 5914 5912 5910 5908 5906 5905 5904 5903 5902 5902 5901 5901 5901 5902 5903 5903 5904 5905 5905 5906 5907 5907 5908 5908 5909 5909 5909 5910 5910 5910 5909 5910 5910 5910 5910 5909 5909 5909 5909 5908 5908
5920 5917 5915 5913 5911 5909 5907 5905 5903 5902 5901 5901 5900 5900 5900 5900 5901 5901 5902 5903 5903 5904 5905 5906 5906 5907 5907 5907 5908 5908 5908 5908 5907 5907 5907 5907 5907 5907 5907 5907 5906 5906 5906
5920 5918 5916 5914 5911 5909 5907 5905 5904 5902 5901 5899 5899 5898 5898 5898 5899 5899 5900 5901 5901 5902 5903 5903 5904 5904 5905 5905 5905 5906 5905 5906 5905 5905 5905 5905 5905 5904 5904 5904 5904 5903 5903
5921 5919 5916 5914 5912 5910 5908 5906 5903 5902 5900 5899 5897 5897 5897 5897 5897 5897 5898 5898 5899 5900 5900 5901 5901 5902 5902 5903 5903 5903 5903 5903 5903 5903 5903 5902 5902 5902 5901 5901 5901 5900 5900
5922 5919 5917 5914 5912 5910 5908 5906 5904 5902 5900 5898 5897 5896 5896 5896 5895 5895 5896 5896 5896 5897 5898 5898 5898 5899 5899 5899 5900 5900 5900 5899 5899 5899 5899 5899 5899 5898 5898 5898 5897 5897 5896
5922 5920 5917 5914 5912 5909 5908 5906 5904 5902 5900 5898 5897 5895 5895 5894 5894 5894 5894 5894 5894 5894 5895 5895 5895 5895 5896 5896 5896 5896 5896 5896 5896 5896 5896 5895 5895 5894 5894 5894 5893 5893 5892